Cumberland, WV

8:02 AM EST on February 24, 2018 (GMT -0500)
Greater Cumberland Regional

Weather History for KCBE - September, 2013

Change the Weather History Date:

Sunday, September 1, 2013

  Actual Average (KMRB) Record (KMRB)
Temperature  
Mean Temperature 75 °F -  
Max Temperature 86 °F 82 °F 103 °F (1932)
Min Temperature 64 °F 59 °F 44 °F (1946)
Cooling Degree Days 10    
Growing Degree Days 25 (Base 50)    
Moisture  
Dew Point 67 °F    
Average Humidity 81    
Maximum Humidity 100    
Minimum Humidity 51    
Precipitation  
Precipitation 0.00 in - - ()
Sea Level Pressure  
Sea Level Pressure 29.88 in    
Wind  
Wind Speed 1 mph (SSE)    
Max Wind Speed 7 mph    
Max Gust Speed -    
Visibility 8 miles    
Events      
Averages and records for this station are not official NWS values.
T = Trace of Precipitation, MM = Missing Value Source: NWS Daily Summary

Daily Weather History Graph

Daily Weather History Graph

Search for Another Location

Airport or City:

Trip Planner

Search our weather history database for the weather conditions in past years. The results will help you decide how hot, cold, wet, or windy it might be!

Date:

Astronomy

Sep. 01, 2013 Rise Set
Actual Time 6:43 AM EDT 7:45 PM EDT
Civil Twilight 6:15 AM EDT 8:13 PM EDT
Nautical Twilight 5:42 AM EDT 8:46 PM EDT
Astronomical Twilight 5:08 AM EDT 9:20 PM EDT
Moon 3:04 AM EDT (9/1) 5:21 PM EDT (9/1)
Length of Visible Light 13h 57m
Length of Day
13h 02m
Waning Crescent, 14% of the Moon is Illuminated
Sep 1
Waning Crescent
Sep 5
New
Sep 12
First Quarter
Sep 19
Full
Sep 26
Last Quarter

Hourly Weather History & Observations

Time (EDT) Temp. Heat Index Dew Point Humidity Pressure Visibility Wind Dir Wind Speed Gust Speed Precip Events Conditions
12:00 AM 69.8 °F - 68.0 °F 94% 29.89 in 10.0 mi Calm Calm - N/A   Clear
12:20 AM 69.8 °F - 68.0 °F 94% 29.89 in 7.0 mi Calm Calm - N/A   Clear
12:40 AM 68.0 °F - 68.0 °F 100% 29.90 in 5.0 mi Calm Calm - N/A   Clear
1:00 AM 68.0 °F - 68.0 °F 100% 29.90 in 7.0 mi Calm Calm - N/A   Clear
1:20 AM 68.0 °F - 68.0 °F 100% 29.89 in 7.0 mi Calm Calm - N/A   Clear
1:40 AM 68.0 °F - 68.0 °F 100% 29.88 in 7.0 mi Calm Calm - N/A   Clear
2:00 AM 68.0 °F - 68.0 °F 100% 29.88 in 7.0 mi Calm Calm - N/A   Clear
2:20 AM 68.0 °F - 68.0 °F 100% 29.87 in 5.0 mi Calm Calm - N/A   Clear
2:40 AM 68.0 °F - 66.2 °F 94% 29.88 in 5.0 mi Calm Calm - N/A   Clear
3:00 AM 68.0 °F - 66.2 °F 94% 29.87 in 5.0 mi Calm Calm - N/A   Clear
3:20 AM 66.2 °F - 64.4 °F 94% 29.87 in 4.0 mi Calm Calm - N/A   Clear
3:40 AM 66.2 °F - 66.2 °F 100% 29.87 in 5.0 mi North 3.5 mph - N/A   Clear
4:00 AM 68.0 °F - 66.2 °F 94% 29.87 in 7.0 mi Calm Calm - N/A   Clear
4:20 AM 66.2 °F - 64.4 °F 94% 29.87 in 5.0 mi Calm Calm - N/A   Clear
4:40 AM 66.2 °F - 64.4 °F 94% 29.87 in 5.0 mi Calm Calm - N/A   Clear
5:00 AM 66.2 °F - 64.4 °F 94% 29.88 in 5.0 mi Calm Calm - N/A   Clear
5:20 AM 66.2 °F - 64.4 °F 94% 29.89 in 7.0 mi Calm Calm - N/A   Clear
5:40 AM 64.4 °F - 64.4 °F 100% 29.89 in 5.0 mi Calm Calm - N/A   Scattered Clouds
6:00 AM 64.4 °F - 64.4 °F 100% 29.90 in 1.2 mi Calm Calm - N/A   Scattered Clouds
6:20 AM 64.4 °F - 64.4 °F 100% 29.90 in 1.2 mi Calm Calm - N/A   Overcast
6:40 AM 64.4 °F - 64.4 °F 100% 29.91 in 2.0 mi Calm Calm - N/A   Overcast
7:00 AM 64.4 °F - 64.4 °F 100% 29.91 in 4.0 mi Calm Calm - N/A   Mostly Cloudy
7:20 AM 64.4 °F - 64.4 °F 100% 29.91 in 2.5 mi Calm Calm - N/A   Overcast
7:41 AM 66.2 °F - 64.4 °F 94% 29.91 in 2.5 mi Calm Calm - N/A   Overcast
8:01 AM 68.0 °F - 66.2 °F 94% 29.91 in 4.0 mi Calm Calm - N/A   Clear
8:21 AM 68.0 °F - 68.0 °F 100% 29.91 in 3.0 mi Calm Calm - N/A   Unknown
8:41 AM 68.0 °F - 68.0 °F 100% 29.91 in 4.0 mi SE 3.5 mph - N/A   Clear
9:01 AM 68.0 °F - 68.0 °F 100% 29.91 in 5.0 mi Calm Calm - N/A   Clear
9:21 AM 69.8 °F - 69.8 °F 100% 29.91 in 10.0 mi Calm Calm - N/A   Clear
9:41 AM 73.4 °F - 68.0 °F 83% 29.91 in 10.0 mi SSE 3.5 mph - N/A   Clear
10:01 AM 75.2 °F - 68.0 °F 78% 29.91 in 10.0 mi SSE 4.6 mph - N/A   Clear
10:21 AM 77.0 °F - 68.0 °F 74% 29.91 in 10.0 mi SE 3.5 mph - N/A   Clear
10:41 AM 78.8 °F - 68.0 °F 69% 29.90 in 10.0 mi SE 4.6 mph - N/A   Scattered Clouds
11:01 AM 78.8 °F - 68.0 °F 69% 29.90 in 10.0 mi SE 4.6 mph - N/A   Scattered Clouds
11:21 AM 80.6 °F 83.2 °F 68.0 °F 65% 29.90 in 10.0 mi SSE 3.5 mph - N/A   Scattered Clouds
11:41 AM 82.4 °F 85.4 °F 68.0 °F 62% 29.90 in 10.0 mi South 4.6 mph - N/A   Clear
12:01 PM 82.4 °F 85.4 °F 68.0 °F 62% 29.90 in 10.0 mi Calm Calm - N/A   Mostly Cloudy
12:21 PM 82.4 °F 85.4 °F 68.0 °F 62% 29.89 in 10.0 mi SSE 6.9 mph - N/A   Scattered Clouds
12:41 PM 82.4 °F 85.4 °F 68.0 °F 62% 29.89 in 10.0 mi SSE 6.9 mph - N/A   Clear
1:01 PM 82.4 °F 85.4 °F 68.0 °F 62% 29.89 in 10.0 mi SSE 3.5 mph - N/A   Scattered Clouds
1:21 PM 86.0 °F 88.2 °F 66.2 °F 51% 29.88 in 10.0 mi South 4.6 mph - N/A   Scattered Clouds
1:41 PM 84.2 °F 86.6 °F 66.2 °F 55% 29.87 in 10.0 mi SSW 4.6 mph - N/A   Clear
2:01 PM 86.0 °F 88.2 °F 66.2 °F 51% 29.87 in 10.0 mi SSE 3.5 mph - N/A   Clear
2:21 PM 86.0 °F 89.4 °F 68.0 °F 55% 29.87 in 10.0 mi South 5.8 mph - N/A   Clear
2:41 PM 84.2 °F 87.3 °F 68.0 °F 58% 29.86 in 10.0 mi South 4.6 mph - N/A   Clear
3:01 PM 84.2 °F 87.3 °F 68.0 °F 58% 29.86 in 10.0 mi SSE 4.6 mph - N/A   Clear
3:21 PM 82.4 °F 85.4 °F 68.0 °F 62% 29.85 in 10.0 mi South 3.5 mph - N/A   Clear
3:41 PM 82.4 °F 85.4 °F 68.0 °F 62% 29.85 in 10.0 mi Calm Calm - N/A   Clear
4:01 PM 84.2 °F 87.3 °F 68.0 °F 58% 29.85 in 10.0 mi Calm Calm - N/A   Clear
4:22 PM 82.4 °F 85.4 °F 68.0 °F 62% 29.85 in 10.0 mi Calm Calm - N/A   Scattered Clouds
4:42 PM 82.4 °F 83.9 °F 64.4 °F 54% 29.85 in 10.0 mi Calm Calm - N/A   Scattered Clouds
5:02 PM 82.4 °F 83.9 °F 64.4 °F 54% 29.85 in 10.0 mi Calm Calm - N/A   Mostly Cloudy
5:22 PM 80.6 °F 82.7 °F 66.2 °F 61% 29.85 in 10.0 mi West 3.5 mph - N/A   Mostly Cloudy
5:42 PM 80.6 °F 83.2 °F 68.0 °F 65% 29.85 in 10.0 mi SSW 3.5 mph - N/A   Mostly Cloudy
6:02 PM 80.6 °F 83.2 °F 68.0 °F 65% 29.84 in 10.0 mi Calm Calm - N/A   Scattered Clouds
6:22 PM 80.6 °F 83.9 °F 69.8 °F 70% 29.84 in 10.0 mi Calm Calm - N/A   Clear
6:42 PM 78.8 °F - 71.6 °F 78% 29.83 in 10.0 mi Calm Calm - N/A   Clear
7:02 PM 80.6 °F 83.9 °F 69.8 °F 70% 29.83 in 10.0 mi Calm Calm - N/A   Clear
7:22 PM 78.8 °F - 71.6 °F 78% 29.83 in 10.0 mi South 3.5 mph - N/A   Clear
7:42 PM 78.8 °F - 66.2 °F 65% 29.83 in 10.0 mi Calm Calm - N/A   Clear
8:02 PM 77.0 °F - 69.8 °F 78% 29.85 in 10.0 mi Calm Calm - N/A   Clear
8:22 PM 77.0 °F - 69.8 °F 78% 29.86 in 10.0 mi Calm Calm - N/A   Clear
8:42 PM 75.2 °F - 69.8 °F 83% 29.86 in 10.0 mi Calm Calm - N/A   Clear
9:02 PM 73.4 °F - 69.8 °F 88% 29.87 in 10.0 mi Calm Calm - N/A   Scattered Clouds
9:22 PM 75.2 °F - 68.0 °F 78% 29.87 in 10.0 mi Calm Calm - N/A   Scattered Clouds
9:42 PM 73.4 °F - 68.0 °F 83% 29.88 in 10.0 mi Calm Calm - N/A   Scattered Clouds
10:02 PM 73.4 °F - 69.8 °F 88% 29.88 in 3.0 mi Calm Calm - N/A   Scattered Clouds
10:22 PM 73.4 °F - 69.8 °F 88% 29.88 in 10.0 mi Calm Calm - N/A   Scattered Clouds
10:42 PM 73.4 °F - 68.0 °F 83% 29.88 in 10.0 mi Calm Calm - N/A   Scattered Clouds
11:02 PM 73.4 °F - 68.0 °F 83% 29.88 in 10.0 mi Calm Calm - N/A   Clear
11:22 PM 71.6 °F - 68.0 °F 88% 29.87 in 3.0 mi NE 3.5 mph - N/A   Clear
11:42 PM 71.6 °F - 68.0 °F 88% 29.87 in 10.0 mi Calm Calm - N/A   Clear